[[{"header":{"parameterUnit":"m.s-1","parameterCategory":1,"la1":30.2991,"la2":30.254,"lo1":-89.0895,"lo2":-89.0444,"dy":0.0017,"dx":0.0017,"nx":28,"ny":28,"refTime":"2023-08-07T03:00:00:Z","depth":0,"parameterNumber":2,"parameterNumberName":"U-component_of_WINDS"},"data":[0,0,0,0,0,0,0,0,0,0,0,0,0,0,0,0,0,0,0,0,0,0,0,0,0,0,0,0,0,0,0,0,0,0,0,0,0,0,0,0,0,0,0,0,0,0,0,0,0,0,0,0,0,0,0,0,0,0,5.8825,5.8827,0,5.8996,5.8998,5.9,5.8935,5.8931,5.8927,5.8923,5.9099,5.9107,5.9116,0,0,0,0,0,0,0,0,0,0,0,0,0,5.8442,5.845,5.8825,5.8827,5.883,5.8996,5.8998,5.9001,5.8936,5.8931,5.8926,5.8922,5.9097,5.9106,5.9116,0,0,0,0,0,0,0,0,0,0,0,0,0,5.861,5.8452,5.8825,5.8817,5.8818,5.8995,5.8998,5.9001,5.8937,5.8931,5.8925,5.8919,5.9093,5.9105,5.9118,5.9313,0,0,5.9156,5.9161,0,0,0,0,0,0,0,0,5.8601,5.8625,5.8816,5.8818,5.8819,5.8938,5.8928,5.9106,5.8938,5.8892,5.8923,5.8916,5.9051,5.9066,5.9111,5.9321,5.9329,5.9157,5.9165,5.917,5.9174,0,0,0,0,0,0,0,5.8589,5.8617,5.8893,5.8819,5.8821,5.8805,5.8822,5.8961,5.9002,5.8895,5.8891,5.8912,5.905,5.9099,5.9115,5.9331,5.9157,5.9168,5.9176,5.9181,5.9707,5.9713,0,0,0,0,0,0,5.8577,5.8608,5.8887,5.8898,5.8693,5.8817,5.8836,5.8906,5.9,5.9009,5.8917,5.8908,5.9081,5.91,5.9121,5.9353,5.917,5.9182,5.9189,5.9701,5.9709,5.9716,0,0,0,0,0,0,5.8569,5.8603,5.8881,5.8752,5.8786,5.8829,5.8909,5.8913,5.8961,5.9017,5.9024,5.8959,5.9077,5.9103,5.9265,5.9358,5.9187,5.9199,5.9693,5.9703,5.9712,5.9821,0,0,0,0,0,0,5.8558,5.86,5.8675,5.8754,5.8793,5.9023,5.8915,5.892,5.8983,5.8974,5.9058,5.9067,5.9074,5.9247,5.9277,5.9373,5.9209,5.9685,5.9698,5.9709,5.9809,5.9833,5.9854,0,0,0,0,0,5.8545,5.87,5.8679,5.8713,5.8888,5.9028,5.905,5.9055,5.8991,5.9066,5.9101,5.9064,5.9344,5.9264,5.9298,5.9398,5.9679,5.9694,5.9708,5.9799,5.9829,5.9853,0,0,0,0,0,0,5.8632,5.871,5.8688,5.8873,5.8944,5.9017,5.9112,5.9087,5.9178,5.9165,5.9168,5.9188,5.9354,5.9393,5.9302,5.9591,5.9502,5.9524,5.9559,5.9587,5.9609,5.9596,5.9219,0,0,0,0,0,5.8672,5.878,5.8843,5.9,5.9037,5.9068,5.913,5.9127,5.9201,5.9231,5.9278,5.9352,5.9455,5.9524,5.9623,5.9815,5.9831,5.9901,5.9923,5.9941,5.996,6.0061,6.0092,5.9764,5.9764,5.9763,0,0,5.8758,5.8814,5.8882,5.9019,5.9073,5.9184,5.9094,5.9216,5.9297,5.925,5.9404,5.9442,5.9524,5.9701,5.9781,5.9738,6.0054,5.996,5.9974,5.9982,6.008,6.0111,6.0138,5.9774,5.9772,5.977,0,0,5.8968,5.9023,5.9158,5.9215,5.9298,5.9318,5.9351,5.9427,5.9449,5.9605,5.9571,5.9668,5.9848,5.9907,5.996,6.0192,6.016,6.0224,6.034,6.0439,6.0465,6.0488,6.0568,6.0597,6.0243,6.0243,6.0243,0,5.9063,5.9229,5.9231,5.9355,5.9415,5.9377,5.9513,5.9568,5.968,5.9722,5.9673,5.9895,5.9948,6.0137,6.0193,6.0239,6.0275,6.0214,6.0461,6.0484,6.0505,6.0582,6.0612,6.025,6.0249,6.0249,6.0248,0,5.934,5.9455,5.9555,5.9662,5.9734,5.9864,5.9885,5.9958,5.9949,5.9974,6.0132,6.0193,6.0303,6.0348,6.0341,6.0536,6.0506,6.0459,6.0369,6.0544,6.0615,6.0645,6.026,6.0258,6.0256,6.0254,0,0,5.9611,5.9717,5.9753,5.98,5.9889,5.9978,6.0106,6.0212,6.0273,6.0352,6.0457,6.0609,6.0565,6.0626,6.0626,6.0713,6.0889,6.0655,6.0657,6.0694,6.1104,6.1137,6.1171,6.087,6.0875,6.088,6.1097,0,5.9826,6.0049,6.0054,6.0258,6.0363,6.0327,6.0438,6.0504,6.053,6.0623,6.0652,6.0759,6.0695,6.0731,6.0816,6.085,6.0971,6.0835,6.0966,6.0971,6.0944,6.1209,6.1245,6.1446,6.1125,6.113,6.1133,0,6.0108,6.0194,6.0408,6.0479,6.0523,6.0623,6.0719,6.0809,6.0883,6.0896,6.0963,6.0949,6.1078,6.0985,6.1161,6.1068,6.1122,6.1147,6.1155,6.1166,6.1061,6.1225,6.1511,6.154,6.1178,6.1174,6.1171,0,6.028,6.045,6.0599,6.0641,6.0729,6.0799,6.0839,6.0907,6.097,6.1054,6.1095,6.1194,6.1248,6.1324,6.1337,6.1269,6.1513,6.1422,6.1526,6.1526,6.1578,6.1574,6.1875,6.1617,6.1617,6.1616,6.1616,0,6.052,6.0651,6.0677,6.0769,6.0914,6.0919,6.1063,6.1097,6.1158,6.1255,6.1231,6.1322,6.1335,6.1429,6.144,6.1583,6.1608,6.1621,6.1622,6.1622,6.162,6.1656,6.1642,6.1624,6.1623,6.1621,6.162,0,6.0736,6.0759,6.0919,6.0988,6.1009,6.1113,6.1172,6.1259,6.1283,6.1405,6.1434,6.1472,6.1581,6.1602,6.1732,6.1739,6.1909,6.1897,6.1883,6.1881,6.1983,6.1972,6.2315,6.2359,6.2076,6.2078,6.2081,0,6.0886,6.0986,6.1066,6.1129,6.1172,6.1274,6.1337,6.1345,6.1412,6.1502,6.1578,6.1685,6.1771,6.1948,6.1986,6.2085,6.2073,6.2187,6.2088,6.2084,6.2072,6.2065,6.2073,6.2205,6.2208,6.2211,6.2213,0,6.1149,6.1155,6.1247,6.1343,6.1419,6.1495,6.1568,6.162,6.1638,6.1714,6.1825,6.1892,6.2023,6.2129,6.2227,6.2268,6.2243,6.2244,6.2273,6.2272,6.2259,6.2265,6.1932,6.2236,6.2233,6.2232,6.223,6.2229,6.1336,6.1422,6.149,6.1593,6.1648,6.1715,6.18,6.1833,6.1926,6.2033,6.2032,6.2153,6.2223,6.2352,6.2398,6.2493,6.2457,6.2499,6.2509,6.2519,6.2527,6.2246,6.2511,6.2511,6.251,6.251,6.2509,0,6.1595,6.1637,6.1731,6.1832,6.1913,6.1882,6.196,6.2029,6.2136,6.2202,6.2287,6.2413,6.2515,6.2561,6.2661,6.2728,6.2719,6.2754,6.2748,6.2757,6.2555,6.2519,6.2759,6.2759,6.2759,6.2759,6.2759,6.2759,6.1739,6.1882,6.1896,6.2065,6.2107,6.2224,6.2271,6.2332,6.2385,6.2527,6.2611,6.2641,6.2699,6.2802,6.2894,6.2905,6.2942,6.2981,6.2987,6.2797,6.2772,6.2747,6.2713,6.299,6.299,6.318,6.3182,6.3183]},{"header":{"parameterUnit":"m.s-1","parameterCategory":1,"la1":30.2991,"la2":30.254,"lo1":-89.0895,"lo2":-89.0444,"dy":0.0017,"dx":0.0017,"nx":28,"ny":28,"refTime":"2023-08-07T03:00:00:Z","depth":0,"parameterNumber":3,"parameterNumberName":"V-component_of_WINDS"},"data":[0,0,0,0,0,0,0,0,0,0,0,0,0,0,0,0,0,0,0,0,0,0,0,0,0,0,0,0,0,0,0,0,0,0,0,0,0,0,0,0,0,0,0,0,0,0,0,0,0,0,0,0,0,0,0,0,0,0,1.8237,1.8238,0,1.8318,1.8319,1.8319,1.831,1.8309,1.8308,1.8307,1.8389,1.8392,1.8396,0,0,0,0,0,0,0,0,0,0,0,0,0,1.8075,1.8078,1.8237,1.8238,1.8239,1.8317,1.8319,1.832,1.8311,1.8309,1.8307,1.8306,1.8388,1.8392,1.8396,0,0,0,0,0,0,0,0,0,0,0,0,0,1.8149,1.8079,1.8237,1.8244,1.8246,1.8317,1.8319,1.832,1.8311,1.8309,1.8307,1.8305,1.8387,1.8392,1.8397,1.8467,0,0,1.8412,1.8414,0,0,0,0,0,0,0,0,1.8145,1.8155,1.8242,1.8244,1.8246,1.8302,1.8292,1.8369,1.8311,1.8286,1.8307,1.8304,1.8362,1.8369,1.8388,1.847,1.8474,1.8413,1.8416,1.8418,1.8419,0,0,0,0,0,0,0,1.814,1.8152,1.8269,1.8243,1.8245,1.8243,1.8251,1.8306,1.8334,1.8288,1.8288,1.8297,1.8362,1.8383,1.839,1.8475,1.8412,1.8417,1.842,1.8422,1.8617,1.8619,0,0,0,0,0,0,1.8133,1.8148,1.8267,1.8271,1.819,1.8247,1.8257,1.8286,1.8333,1.8338,1.8299,1.8297,1.8375,1.8384,1.8393,1.8477,1.8418,1.8423,1.8426,1.8615,1.8618,1.862,0,0,0,0,0,0,1.813,1.8144,1.8263,1.821,1.8224,1.8252,1.8285,1.8288,1.8309,1.8341,1.8346,1.8315,1.8374,1.8386,1.8448,1.848,1.8425,1.843,1.8613,1.8616,1.8619,1.8647,0,0,0,0,0,0,1.8125,1.8143,1.817,1.821,1.8227,1.8318,1.8287,1.8291,1.8318,1.8316,1.8358,1.8363,1.8374,1.844,1.8453,1.8486,1.8434,1.861,1.8614,1.8618,1.8643,1.865,1.8657,0,0,0,0,0,1.8119,1.8175,1.8172,1.8186,1.8262,1.8319,1.8329,1.834,1.8321,1.8348,1.8368,1.8362,1.8474,1.8447,1.8461,1.8496,1.8608,1.8613,1.8618,1.864,1.8649,1.8657,0,0,0,0,0,0,1.8139,1.8181,1.8177,1.8247,1.828,1.8318,1.8353,1.835,1.8389,1.8385,1.8397,1.8406,1.8469,1.8489,1.8458,1.8565,1.8538,1.8546,1.855,1.8559,1.8566,1.856,1.8438,0,0,0,0,0,1.8151,1.8194,1.8228,1.8287,1.8303,1.8325,1.8351,1.8356,1.839,1.8404,1.8429,1.8462,1.8505,1.8533,1.8574,1.8645,1.8654,1.8676,1.8683,1.8688,1.8695,1.8733,1.8743,1.8636,1.8636,1.8636,0,0,1.8177,1.8205,1.8232,1.8291,1.8317,1.8361,1.8337,1.8385,1.8418,1.8412,1.8472,1.8491,1.8529,1.8596,1.8626,1.8614,1.8726,1.8694,1.8699,1.8703,1.8739,1.8749,1.8758,1.8639,1.8639,1.8638,0,0,1.8247,1.8273,1.8324,1.835,1.8389,1.8403,1.8415,1.8454,1.8466,1.8526,1.8522,1.8561,1.8635,1.8661,1.8685,1.8763,1.8758,1.8776,1.8812,1.8849,1.8857,1.8865,1.8892,1.8902,1.8782,1.8782,1.8782,0,1.8275,1.8341,1.8351,1.8399,1.8425,1.8421,1.8472,1.8497,1.8548,1.8565,1.855,1.8642,1.8667,1.8739,1.8758,1.8777,1.8791,1.8772,1.8855,1.8863,1.887,1.8896,1.8906,1.8784,1.8784,1.8784,1.8784,0,1.8373,1.8419,1.8455,1.8504,1.8534,1.8584,1.86,1.8629,1.8631,1.8647,1.8707,1.8737,1.8784,1.8801,1.8804,1.8874,1.8865,1.8852,1.8826,1.8882,1.8907,1.8917,1.8787,1.8786,1.8786,1.8785,0,0,1.8459,1.8511,1.8524,1.8545,1.8587,1.8623,1.8672,1.8717,1.8741,1.8776,1.8817,1.8878,1.8866,1.8893,1.8898,1.8931,1.8989,1.8914,1.8915,1.8927,1.9067,1.9076,1.9088,1.8986,1.8988,1.899,1.9064,0,1.8533,1.862,1.8629,1.8706,1.8748,1.8744,1.8786,1.8816,1.8831,1.8868,1.8885,1.8928,1.8909,1.8925,1.8957,1.8976,1.9018,1.897,1.9024,1.9026,1.9015,1.9101,1.9111,1.918,1.9074,1.9075,1.9076,0,1.8632,1.8668,1.875,1.8784,1.8802,1.884,1.8882,1.8918,1.8951,1.8959,1.8988,1.8989,1.9039,1.9009,1.9077,1.9045,1.9067,1.9079,1.9082,1.9088,1.9055,1.9109,1.9202,1.9213,1.9092,1.9091,1.909,0,1.8686,1.8755,1.8813,1.8831,1.8873,1.89,1.8919,1.895,1.8976,1.9012,1.9029,1.907,1.9093,1.9124,1.9136,1.9114,1.9203,1.9175,1.9211,1.9211,1.9231,1.923,1.9329,1.9245,1.9245,1.9245,1.9244,0,1.8768,1.8818,1.8838,1.8873,1.8928,1.8938,1.8992,1.9009,1.9037,1.9075,1.9073,1.9109,1.9122,1.916,1.9169,1.9224,1.9234,1.9242,1.9244,1.9243,1.9242,1.9258,1.9253,1.9247,1.9247,1.9246,1.9246,0,1.8838,1.8854,1.8916,1.895,1.896,1.8999,1.9028,1.9062,1.9075,1.9123,1.9135,1.9157,1.9201,1.9215,1.9269,1.9275,1.9339,1.9336,1.9327,1.9328,1.9363,1.936,1.9477,1.9493,1.9398,1.9399,1.9399,0,1.889,1.8928,1.8966,1.8991,1.9011,1.9052,1.9078,1.9088,1.9115,1.9155,1.9184,1.9227,1.9263,1.9333,1.9354,1.9394,1.9393,1.9431,1.9399,1.9396,1.9393,1.9391,1.9395,1.9437,1.9438,1.9439,1.944,0,1.898,1.8985,1.9023,1.9063,1.9094,1.9127,1.9158,1.9178,1.9193,1.9224,1.9269,1.9296,1.935,1.9393,1.9434,1.9452,1.9449,1.945,1.946,1.9459,1.9452,1.9456,1.9344,1.9447,1.9446,1.9446,1.9445,1.9445,1.9043,1.9076,1.9107,1.9149,1.9173,1.9202,1.9235,1.9252,1.929,1.9334,1.9338,1.9386,1.9417,1.9471,1.9492,1.9529,1.9518,1.9534,1.9538,1.9541,1.9544,1.9446,1.9537,1.9537,1.9536,1.9536,1.9536,0,1.9132,1.9152,1.919,1.9233,1.9266,1.9258,1.9292,1.932,1.9362,1.9391,1.9426,1.9476,1.9518,1.9541,1.9582,1.9607,1.9606,1.9617,1.9616,1.962,1.9552,1.9538,1.9617,1.9617,1.9617,1.9617,1.9617,1.9617,1.9182,1.9238,1.9247,1.9314,1.9333,1.938,1.9399,1.9426,1.9449,1.9505,1.954,1.9554,1.958,1.9623,1.966,1.9665,1.9681,1.9693,1.9697,1.9633,1.9625,1.9617,1.9605,1.9696,1.9696,1.9763,1.9763,1.9764]}]]